Location: Appeville
(49.3218°N, 1.3427°W)
Time: 05:43:47
(UTC+00:00)

STARLINK 1065 - Pass Details

Date: 08 December 2019
Orbit: 549 x 550 km, 53.0° (Epoch: 22 January)

Event Time Altitude Azimuth Distance (km) Brightness Sun altitude
Exits shadow 03:57:28 15° 81° (E) 1,611 6.7 -36.3°
Drops below altitude 10° 03:58:13 10° 84° (E) 1,898 7.1 -36.2°
Enters shadow 04:58:14 -64° 288° (WNW) 12,031 10.4 -26.4°
Maximum altitude 05:34:10 81° 206° (SSW) 593 3.6 -20.6°
